Location: Auttagershofen
(48.1940°N, 10.0237°E)
Time: 00:57:22
(UTC+00:00)

MOS 1 Rocket - Pass Details

Date: 18 January 2026
Orbit: 608 x 815 km, 97.4° (Epoch: 6 February)

Event Time Altitude Azimuth Distance (km) Brightness Sun altitude
Rises 05:28:00 0° 17° (NNE) 3,020 6.6 -15.5°
Reaches altitude 10° 05:30:21 10° 22° (NNE) 2,072 5.8 -15.1°
Maximum altitude 05:34:42 50° 98° (E) 812 4.1 -14.4°
Drops below altitude 10° 05:38:52 10° 175° (S) 1,976 5.9 -13.8°
Sets 05:41:04 0° 180° (S) 2,864 6.7 -13.4°
